Regional Weather Roundup
Issued by NWS Wilmington, NC

Home | Current Version | Previous Version | Text Only | Print | Product List | Glossary On
Versions: 1 2 3 4 5 6 7 8 9 10 11 12 13 14 15 16 17 18 19 20 21 22 23 24 25 26 27 28 29 30 31 32 33 34 35 36 37 38 39 40 41 42 43 44 45 46 47 48 49 50
000
ASUS42 KILM 061713
RWRILM
RWRILM
REGIONAL HOURLY WEATHER ROUNDUP
NATIONAL WEATHER SERVICE WILMINGTON NC
100 PM EDT MON JUL 06 2015

NOTE: "FAIR" INDICATES FEW OR NO CLOUDS BELOW 12,000 FEET WITH NO
SIGNIFICANT WEATHER AND/OR OBSTRUCTIONS TO VISIBILITY.

...............WFO WILMINGTON COUNTY WARNING AREA...............

......COASTAL NC AND SC COUNTIES......

CITY           SKY/WX    TMP DP  RH WIND       PRES   REMARKS
WILMINGTON     MOSUNNY   89  68  49 S10G18    30.13F HX  93
N MYRTLE BEACH MOSUNNY   83  72  69 SW15      30.14F
MYRTLE BEACH   MOSUNNY   84  72  65 S15       30.15F

......INLAND NC AND SC COUNTIES.......

CITY           SKY/WX    TMP DP  RH WIND       PRES   REMARKS
LUMBERTON      MOSUNNY   87  68  52 SW5       30.12F HX  90
ELIZABETHTOWN  MOSUNNY   86  68  55 SW3       30.13F
WHITEVILLE     MOSUNNY   86  69  55 SW6       30.13F HX  90
FLORENCE       MOSUNNY   83  72  69 S8        30.14F
DARLINGTON     MOSUNNY   84  72  65 SW6       30.14F

....................REST OF NORTH CAROLINA......................

.........EASTERN NC.........

CITY           SKY/WX    TMP DP  RH WIND       PRES   REMARKS
CAPE HATTERAS  MOSUNNY   83  74  74 SW9       30.17F
JACKSONVILLE   PTSUNNY   90  70  51 S8        30.12F HX  95
MOREHEAD CITY  PTSUNNY   84  75  74 S14       30.16S HX  92
KENANSVILLE    MOSUNNY   87  67  50 SW9       30.13F
NEW BERN       MOSUNNY   82  75  79 SW6       30.15F
ELIZABETH CITY MOSUNNY   86  74  67 S12       30.13F HX  94

.........CENTRAL NC.........

CITY           SKY/WX    TMP DP  RH WIND       PRES   REMARKS
RALEIGH DURHAM MOSUNNY   85  70  60 SW12G18   30.12F
ROCKY MOUNT    PTSUNNY   88  71  57 S8        30.11F HX  94
ROANOKE RAPIDS NOT AVBL
FAYETTEVILLE   MOSUNNY   88  69  53 W10       30.11F HAZE    HX  92
HOFFMAN        MOSUNNY   85  70  61 SW10      30.15F

.........WESTERN NC.........

CITY           SKY/WX    TMP DP  RH WIND       PRES   REMARKS
CHARLOTTE      MOSUNNY   88  63  43 W9G17     30.12F
GREENSBORO     CLOUDY    84  64  50 W15       30.11F
HICKORY        NOT AVBL
BOONE          NOT AVBL
ASHEVILLE      NOT AVBL

.....................REST OF SOUTH CAROLINA.....................

.........EASTERN SC.........

CITY           SKY/WX    TMP DP  RH WIND       PRES   REMARKS
CHARLESTON     MOSUNNY   83  72  69 NW5       30.16F
BEAUFORT MCAS  PTSUNNY   84  73  69 CALM      30.16F HX  90
HILTON HEAD    PTSUNNY   81  73  78 CALM      30.18F

.........CENTRAL SC.........

CITY           SKY/WX    TMP DP  RH WIND       PRES   REMARKS
COLUMBIA       MOSUNNY   85  70  60 SW5       30.13F
ORANGEBURG     PTSUNNY   81  71  71 SW12      30.16F
SUMTER SHAW    PTSUNNY   81  71  71 S7        30.13F

.........WESTERN SC.........

CITY           SKY/WX    TMP DP  RH WIND       PRES   REMARKS
GREENVILLE     NOT AVBL
ROCK HILL      MOSUNNY   86  69  56 W7        30.13F HX  90
ANDERSON       PTSUNNY   84  68  58 SW9       30.15F
CLEMSON        NOT AVBL
GREENWOOD      PTSUNNY   86  70  58 SW10      30.16S HX  90


...................COASTAL AND OFFSHORE REPORTS..................

................LOCAL PIERS AND NC RESERVE................


STATION/POSITION TIME  SKY/WX   TEMP    WIND        PRES    VSBY
                                AIR SEA DIR/SP/G
                 (UTC)          (F)     (DEG/KT/KT) (MB)    (MI)
JOHNY MRCER PIER 1600            80 79  180/ 13/ 16 1020.3F
NC RESRV MASNBRO NOT AVBL
OCEAN CREST PIER NOT AVBL
SPRINGMAID  PIER 1600            81 82  150/ 11/ 12 1020.8F


................COASTAL AND OFFSHORE BUOYS................


STATION/POSITION TIME  SKY/WX   TEMP    WIND        PRES    VSBY
                                AIR SEA DIR/SP/G
                 (UTC)          (F)     (DEG/KT/KT) (MB)    (MI)
DIMNDSHOAL 41025 1650            80 82  190/ 12/ 14 1021.5F
WVE H/P(F/S)=  3/13 WND WVE H/P(F/S)=  2/ 5 SWL H/P/D(F/S/D)=  2/ 90/13

CAPE LOOKOUT     1700            80     180/  9/ 10 1021.2F
ONSLOW BAY 41036 NOT AVBL
5 WRITEBCH 41038 1608            80 79  210/ 10/ 14 1020.7F
MASONBORO  41110 1619               79                N/A
WVE H/P(F/S)=  3/ 9 WND WVE H/P(F/S)=  2/ 9

WILM HARBR 41108 1611               82                N/A
WVE H/P(F/S)=  3/ 5 WND WVE H/P(F/S)=  3/ 5

27WRITEBCH 41037 1600               80  220/ 12/ 14   N/A
FRYING PAN 41013 1650            80 80  240/  6/  8 1021.5F
WVE H/P(F/S)=  3/ 5 WND WVE H/P(F/S)=  2/ 4 SWL H/P/D(F/S/D)=  3/200/ 5

SUNST NRSH 41024 1608            80     230/ 10/ 14 1020.6F
CAPRS NRSH 41029 1608            80     240/  6/ 10 1021.4F
EDISTO     41004 1650            80 83  230/  8/ 10 1020.9S
WVE H/P(F/S)=  3/ 8 WND WVE H/P(F/S)=  2/ 4 SWL H/P/D(F/S/D)=  2/ 8



..........OFFSHORE BUOYS BEYOND 100 NM OFFSHORE...........
.....IN A TRIANGLE---HAT TO BERMUDA TO BAHAMAS TO HAT.....


STATION/POSITION TIME  SKY/WX   TEMP    WIND        PRES    VSBY
                                AIR SEA DIR/SP/G
                 (UTC)          (F)     (DEG/KT/KT) (MB)    (MI)
150E HAT   41001 NOT AVBL
W BERMUDA  41048 1650            81 83  200/  4/  6 1024.5R
WVE H/P(F/S)=  4/ 8 SWL H/P/D(F/S/D)=  3/120/ 8

ATLANTIC S 41049 1650            82 84   70/ 12/ 14 1024.1F
WVE H/P(F/S)=  4/ 8 WND WVE H/P(F/S)=  2/ 5 SWL H/P/D(F/S/D)=  3/110/ 8

E BAHAMAS  41046 1650            83 84   60/ 12/ 14 1022.0F
WVE H/P(F/S)=  5/ 8 WND WVE H/P(F/S)=  3/ 5 SWL H/P/D(F/S/D)=  3/120/ 8

NE BAHAMAS 41047 1650            83 85  150/  6/  8 1023.4F
WVE H/P(F/S)=  4/ 9 WND WVE H/P(F/S)=  2/ 4 SWL H/P/D(F/S/D)=  3/130/ 9

120E CANVRL41010 1620            84 84  190/  8/ 10 1022.5F

END


USA.gov is the U.S. government's official web portal to all federal, state and local government web resources and services.